Satellite-Ground Cal/Val Region Overpasses Predictions

Prediction of Satellite NPP Overpassing Cal/Val Region: PacNW

Region Location: (Latitude: 10.00, Longitude: 139.50) to (Latitude: 22.70, Longitude: 165.60).

Table of predicted overpasses for the next 14.0 days since TLE Epoch: 4/6/2018
Interval Starting Time Starting Location Ending Time Ending Location
1 04/07/2018 03:17:09 ( 10.00, 150.39) 04/07/2018 03:20:45 ( 22.68, 147.37)
2 04/07/2018 15:49:03 ( 22.66, 147.62) 04/07/2018 15:52:38 ( 10.04, 144.62)
3 04/08/2018 02:58:08 ( 10.01, 155.15) 04/08/2018 03:01:44 ( 22.69, 152.13)
4 04/08/2018 15:30:01 ( 22.65, 152.37) 04/08/2018 15:33:36 ( 10.03, 149.37)
5 04/09/2018 02:39:06 ( 10.01, 159.90) 04/09/2018 02:42:42 ( 22.70, 156.88)
6 04/09/2018 15:11:00 ( 22.65, 157.13) 04/09/2018 15:14:35 ( 10.03, 154.13)
7 04/10/2018 02:20:05 ( 10.02, 164.66) 04/10/2018 02:23:40 ( 22.65, 161.65)
8 04/10/2018 14:51:58 ( 22.70, 161.90) 04/10/2018 14:55:34 ( 10.02, 158.88)
9 04/11/2018 03:42:33 ( 10.03, 144.04) 04/11/2018 03:46:08 ( 22.66, 141.03)
10 04/11/2018 14:34:10 ( 18.35, 165.59) 04/11/2018 14:36:32 ( 10.01, 163.64)
11 04/11/2018 16:14:26 ( 22.69, 141.28) 04/11/2018 16:16:30 ( 15.41, 139.51)
12 04/12/2018 03:23:32 ( 10.04, 148.79) 04/12/2018 03:27:07 ( 22.67, 145.79)
13 04/12/2018 15:55:25 ( 22.68, 146.03) 04/12/2018 15:59:00 ( 10.06, 143.03)
14 04/13/2018 03:04:30 ( 10.05, 153.55) 04/13/2018 03:08:05 ( 22.68, 150.54)
15 04/13/2018 15:36:23 ( 22.67, 150.79) 04/13/2018 15:39:58 ( 10.05, 147.79)
16 04/14/2018 02:45:28 ( 10.00, 158.32) 04/14/2018 02:49:04 ( 22.69, 155.30)
17 04/14/2018 15:17:22 ( 22.66, 155.54) 04/14/2018 15:20:57 ( 10.04, 152.54)
18 04/15/2018 02:26:26 ( 10.01, 163.07) 04/15/2018 02:30:02 ( 22.70, 160.05)
19 04/15/2018 14:58:20 ( 22.65, 160.30) 04/15/2018 15:01:55 ( 10.03, 157.29)
20 04/16/2018 02:10:07 ( 19.54, 165.59) 04/16/2018 02:11:00 ( 22.65, 164.82)
21 04/16/2018 03:48:55 ( 10.03, 142.45) 04/16/2018 03:52:26 ( 22.42, 139.50)
22 04/16/2018 14:39:18 ( 22.70, 165.07) 04/16/2018 14:42:54 ( 10.02, 162.05)
23 04/16/2018 16:20:48 ( 22.69, 139.69) 04/16/2018 16:21:01 ( 21.93, 139.50)
24 04/17/2018 03:29:53 ( 10.04, 147.20) 04/17/2018 03:33:28 ( 22.67, 144.20)
25 04/17/2018 16:01:46 ( 22.68, 144.45) 04/17/2018 16:05:22 ( 10.01, 141.43)
26 04/18/2018 03:10:52 ( 10.05, 151.96) 04/18/2018 03:14:27 ( 22.68, 148.95)
27 04/18/2018 15:42:45 ( 22.67, 149.20) 04/18/2018 15:46:20 ( 10.05, 146.20)
28 04/19/2018 02:51:50 ( 10.01, 156.73) 04/19/2018 02:55:26 ( 22.69, 153.71)
29 04/19/2018 15:23:43 ( 22.66, 153.95) 04/19/2018 15:27:18 ( 10.04, 150.95)
30 04/20/2018 02:32:48 ( 10.02, 161.48) 04/20/2018 02:36:23 ( 22.64, 158.48)


NCC Satellite Cal/Val Overpasses Prediction Service
